Volver al catálogo

STARLINK-5242

ActivoComunicacionesVLEO
NORAD 54173·PAYLOAD·🇺🇸 United States

Lanzado Oct 28, 2022 desde Vandenberg Space Force Base

Loading…

Próximos Pases (próximas 24 horas)

TLE

ActualizadoSource: CelesTrak SupGP

Época: Sep 15, 2026, 02:28 UTC

1 54173C 22141S   26258.10326389 -.00025127  00000+0 -74244-3 0  2585
2 54173  53.1575 219.1011 0001293  87.5955 260.2654 15.34400200    12

Sigue STARLINK-5242 en tiempo real con AllMySat

Download on the App Store